Regional Weather Roundup
Issued by NWS

Home | Current Version | Previous Version | Graphics & Text | Print | Product List | Glossary On
Versions: 1 2 3 4 5 6 7 8 9 10 11 12 13 14 15 16 17 18 19 20 21 22 23 24 25 26 27 28 29 30 31 32 33 34 35 36 37 38 39 40 41 42 43 44 45 46 47 48 49 50
000
ASUS43 KIND 300109
RWRIN

WEATHER ROUNDUP FOR INDIANA
NATIONAL WEATHER SERVICE INDIANAPOLIS IN
900 PM EDT FRI JUL 29 2016

NOTE: "FAIR" INDICATES FEW OR NO CLOUDS BELOW 12,000 FEET WITH NO
SIGNIFICANT WEATHER AND/OR OBSTRUCTIONS TO VISIBILITY.

* - STATION DOES NOT REPORT WEATHER SUCH AS PRECIPITATION OR FOG.

+ - STATION NOT QUALITY CONTROLLED BY THE NATIONAL WEATHER SERVICE.
    USE DATA WITH CAUTION...ESPECIALLY DEWPOINT AND RELATIVE
    HUMIDITY OBSERVATIONS.

INZ001>003-010>013-019-020-300200-
NORTHWEST INDIANA

CITY           SKY/WX    TMP DP  RH WIND       PRES   REMARKS
GARY /AIRPORT/ MOCLDY    72  70  94 NE6       29.94R
KNOX *+        CLOUDY    70  64  83 NE5       29.94S
LA PORTE +     MOCLDY    72  72 100 E6        29.95S
MICHIGAN CITY+ PTCLDY    68  68 100 MISG      29.94S
MONTICELLO +   CLOUDY    76  67  74 NE5       29.92R
RENSSELAER +   CLEAR     72  68  88 CALM      29.93R
VALPARAISO     CLOUDY    68  66  93 NE6       29.94R

$$

LMZ046-743>745-300200-
SOUTHERN LAKE MICHIGAN

STATION/POSITION TIME  TEMP    WIND        PRES    WAVE
                       AIR SEA DIR/SP/G            HT
                 (UTC) (F)     (DEG/KT/KT) (MB)    (FT)
BURNS HARBOR     0002   72      70/ 12/ 14 1013.9S
MICHIGAN CITY    0000   71      40/ 11/ 12   N/A
5NW MICH CITY    0100   74 76   50/ 14/ 17   N/A     2

$$

INZ004-005-014>016-021>024-300200-
NORTH CENTRAL INDIANA

CITY           SKY/WX    TMP DP  RH WIND       PRES   REMARKS
ELKHART        CLOUDY    73  68  83 N6        29.95S
GOSHEN         MOCLDY    74  68  81 NE7       29.93F
LOGANSPORT +   CLOUDY    72  68  88 E5        29.93S
PERU/GRISSOM   MOCLDY    72  70  95 E6        29.91S
ROCHESTER +    PTCLDY    73  72  94 CALM      29.94R
SOUTH BEND     CLOUDY    71  69  93 NE8       29.95S
WARSAW +       CLOUDY    72  66  83 CALM      29.94S

$$

INZ006>009-017-018-025>027-300200-
NORTHEAST INDIANA

CITY           SKY/WX    TMP DP  RH WIND       PRES   REMARKS
ANGOLA *+        N/A     75  70  83 E9        29.95S
AUBURN +       HVY RAIN  68  64  88 CALM      29.98R
FORT WAYNE     CLOUDY    70  67  90 SE9       29.92F
HUNTINGTON +   DRIZZLE   69  68  96 SE3       29.93F

$$

INZ028-029-035-036-043>045-051>053-300200-
WEST CENTRAL INDIANA

CITY           SKY/WX    TMP DP  RH WIND       PRES   REMARKS
CRAWFORDSVL +  MOCLDY    73  73 100 CALM      29.92R
GREENCASTLE +  CLEAR     72  72 100 CALM      29.92S
LAFAYETTE      CLOUDY    73  69  87 NE8       29.91R
TERRE HAUTE    PTCLDY    77  69  76 CALM      29.91R

$$

INZ030>032-037>040-046>048-054>057-064-065-300200-
CENTRAL INDIANA

CITY           SKY/WX    TMP DP  RH WIND       PRES   REMARKS
COLUMBUS       CLEAR     75  73  94 CALM      29.91S
FISHERS *+     CLOUDY    70  70 100 CALM      29.91
INDIANAPOLIS   MOCLDY    76  68  76 N7        29.92R
-EAGLE CREEK   PTCLDY    78  67  68 CALM      29.91R
KOKOMO *+      CLOUDY    72  66  83 E3        29.93R
MARION +       PTCLDY    71  69  92 E5        29.94S
MT COMFORT *+  MOCLDY    70  68  94 CALM      29.92F
SHELBYVILLE    CLOUDY    75  66  73 N6        29.91R
ZIONSVILLE +   CLEAR     70  69  96 CALM      29.93S

$$

INZ033-034-041-042-049-050-058-059-300200-
EAST CENTRAL INDIANA

CITY           SKY/WX    TMP DP  RH WIND       PRES   REMARKS
MUNCIE         LGT RAIN  72  68  87 NE6       29.94S

$$

INZ060-061-067>069-081>083-085>088-300200-
SOUTHWEST INDIANA

CITY           SKY/WX    TMP DP  RH WIND       PRES   REMARKS
EVANSVILLE     MOCLDY    76  72  87 CALM      29.92R
HUNTINGBURG *+ PTCLDY    75  70  83 SW5       29.91S
WASHINGTON +   PTCLDY    75  75 100 MISG      29.90S

$$

INZ062-063-066-070>080-084-089>092-300200-
SOUTH CENTRAL AND SOUTHEAST INDIANA

CITY           SKY/WX    TMP DP  RH WIND       PRES   REMARKS
BLOOMINGTON    PTCLDY    75  68  78 CALM      29.92R
MADISON *+     CLOUDY    73  70  88 CALM      29.93S
NORTH VERNON + MOCLDY    77  73  88 CALM      29.92
SEYMOUR +      CLOUDY    79  73  83 CALM      29.90S

$$




USA.gov is the U.S. government's official web portal to all federal, state and local government web resources and services.